This is the latest recevied weather packets stored in our database for station/object KE8DDT-7. If no packets are shown the sender has not sent any weather packets the latest 10 day(s).
| Time | Temp. | Humidity | Pressure | Rain* | Wind** | Luminosity | Snow |
|---|---|---|---|---|---|---|---|
| 1778161195 | 9.44° C | 57% | 1005 hPa | 0 mm | - | 582 W/m² | - |
| 1778160894 | 9.44° C | 58% | 1005 hPa | 0 mm | - | 566 W/m² | - |
| 1778160595 | 9.44° C | 60% | 1005 hPa | 0 mm | - | 552 W/m² | - |
| 1778160296 | 9.44° C | 59% | 1005.1 hPa | 0 mm | - | 536 W/m² | - |
| 1778159995 | 8.89° C | 61% | 1005 hPa | 0 mm | - | 519 W/m² | - |
| 1778159695 | 8.89° C | 62% | 1005.1 hPa | 0 mm | - | 497 W/m² | - |
| 1778159395 | 8.33° C | 61% | 1005.2 hPa | 0 mm | - | 480 W/m² | - |
| 1778159095 | 8.33° C | 62% | 1005.1 hPa | 0 mm | - | 466 W/m² | - |
| 1778158794 | 8.33° C | 64% | 1005.2 hPa | 0 mm | - | 448 W/m² | - |
| 1778158494 | 7.78° C | 64% | 1005 hPa | 0 mm | - | 431 W/m² | - |
| 1778158195 | 7.78° C | 65% | 1004.9 hPa | 0 mm | - | 417 W/m² | - |
| 1778157894 | 7.22° C | 66% | 1004.9 hPa | 0 mm | - | 397 W/m² | - |
| 1778157595 | 6.67° C | 67% | 1005 hPa | 0 mm | - | 381 W/m² | - |
| 1778157295 | 6.67° C | 68% | 1005.1 hPa | 0 mm | - | 366 W/m² | - |
| 1778156995 | 6.11° C | 69% | 1005 hPa | 0 mm | - | 346 W/m² | - |
| 1778156694 | 6.11° C | 70% | 1005 hPa | 0 mm | - | 329 W/m² | - |
| 1778156378 | 5.56° C | 70% | 1005 hPa | 0 mm | - | 311 W/m² | - |
| 1778156078 | 5.56° C | 70% | 1004.9 hPa | 0 mm | - | 67 W/m² | - |
| 1778155778 | 5.56° C | 70% | 1004.9 hPa | 0 mm | - | 160 W/m² | - |
| 1778155523 | 5° C | 70% | 1004.8 hPa | 0 mm | - | 262 W/m² | - |
| 1778155478 | 5° C | 70% | 1004.8 hPa | 0 mm | - | 262 W/m² | - |
| 1778155178 | 5° C | 70% | 1004.9 hPa | 0 mm | - | 46 W/m² | - |
| 1778154878 | 5° C | 70% | 1004.9 hPa | 0 mm | - | 46 W/m² | - |
| 1778154578 | 5° C | 70% | 1004.9 hPa | 0 mm | - | 42 W/m² | - |
| 1778154278 | 4.44° C | 70% | 1004.8 hPa | 0 mm | - | 40 W/m² | - |
* Rain latest hour (hover to see other rain measurements)
** Current wind speed in m/s (hover to see current wind gust speed)